| time (UTC) | temp C | wind direction | speed KPH | gust KPH | rain 1hr cm | rain 24hr cm | rain mn cm | humidity % | barometer mb |
| 20260507121345 | 9 | 295 | 1.6 | 12.9 | 0.05 | 0.71 | 0.64 | 94 | 1012.8 |
| 20260507120841 | 9 | 300 | 3.2 | 12.9 | 0.05 | 0.71 | 0.64 | 94 | 1012.8 |
| 20260507120342 | 9 | 267 | 3.2 | 12.9 | 0.05 | 0.71 | 0.61 | 94 | 1012.7 |
| 20260507120312 | 9 | 267 | 6.4 | 12.9 | 0.05 | 0.71 | 0.61 | 94 | 1012.7 |
| 20260507115844 | 9 | 296 | 9.7 | 14.5 | 0.05 | 0.71 | 0.61 | 94 | 1012.6 |
| 20260507115342 | 9 | 280 | 8.0 | 14.5 | 0.05 | 0.71 | 0.61 | 94 | 1012.6 |
| 20260507114840 | 9 | 300 | 6.4 | 14.5 | 0.05 | 0.71 | 0.61 | 94 | 1012.5 |
| 20260507114812 | 9 | 300 | 6.4 | 14.5 | 0.05 | 0.71 | 0.61 | 94 | 1012.5 |
| 20260507113312 | 9 | 292 | 6.4 | 12.9 | 0.05 | 0.71 | 0.61 | 93 | 1012.5 |
| 20260507111812 | 10 | 261 | 3.2 | 12.9 | 0.05 | 0.69 | 0.61 | 94 | 1012.4 |
| 20260507110312 | 10 | 273 | 8.0 | 20.9 | 0.05 | 0.66 | 0.58 | 94 | 1012.3 |
| 20260507104812 | 10 | 269 | 8.0 | 17.7 | 0.05 | 0.66 | 0.58 | 94 | 1012.2 |
| 20260507103312 | 10 | 291 | 9.7 | 16.1 | 0.08 | 0.64 | 0.56 | 94 | 1012.0 |
| 20260507101813 | 10 | 294 | 11.3 | 20.9 | 0.08 | 0.61 | 0.53 | 93 | 1011.8 |
| 20260507100312 | 10 | 304 | 6.4 | 14.5 | 0.05 | 0.61 | 0.51 | 93 | 1011.7 |
| 20260507094812 | 10 | 232 | 8.0 | 19.3 | 0.05 | 0.61 | 0.51 | 92 | 1011.5 |
| 20260507093312 | 10 | 233 | 6.4 | 14.5 | 0.03 | 0.56 | 0.48 | 89 | 1011.4 |
| 20260507091812 | 11 | 213 | 11.3 | 19.3 | 0.00 | 0.53 | 0.46 | 87 | 1011.4 |
| 20260507090312 | 11 | 211 | 14.5 | 22.5 | 0.00 | 0.53 | 0.46 | 86 | 1011.2 |
| 20260507084812 | 11 | 216 | 9.7 | 16.1 | 0.00 | 0.53 | 0.46 | 87 | 1011.1 |
| 20260507083313 | 11 | 208 | 8.0 | 14.5 | 0.00 | 0.53 | 0.46 | 89 | 1011.0 |
| 20260507081812 | 10 | 219 | 9.7 | 16.1 | 0.00 | 0.53 | 0.46 | 90 | 1010.7 |
| 20260507080312 | 11 | 199 | 9.7 | 19.3 | 0.00 | 0.53 | 0.46 | 89 | 1010.7 |
| 20260507074812 | 11 | 196 | 3.2 | 9.7 | 0.00 | 0.53 | 0.46 | 90 | 1010.6 |
| 20260507073313 | 10 | 189 | 1.6 | 8.0 | 0.03 | 0.53 | 0.46 | 92 | 1010.3 |
| 20260507071812 | 10 | 190 | 1.6 | 6.4 | 0.05 | 0.53 | 0.46 | 92 | 1010.3 |
| 20260507070312 | 10 | 201 | 4.8 | 11.3 | 0.05 | 0.53 | 0.46 | 92 | 1010.3 |
| 20260507064812 | 10 | 221 | 3.2 | 6.4 | 0.05 | 0.53 | 0.46 | 92 | 1010.3 |
| 20260507063312 | 10 | 227 | 4.8 | 9.7 | 0.03 | 0.51 | 0.43 | 92 | 1010.3 |
| 20260507061812 | 10 | 236 | 3.2 | 9.7 | 0.00 | 0.51 | 0.43 | 92 | 1010.1 |
| 20260507060312 | 10 | 224 | 3.2 | 9.7 | 0.00 | 0.51 | 0.43 | 92 | 1010.0 |
| 20260507054812 | 10 | 215 | 3.2 | 8.0 | 0.00 | 0.51 | 0.43 | 93 | 1009.8 |
| 20260507053312 | 10 | 213 | 1.6 | 6.4 | 0.00 | 0.51 | 0.43 | 94 | 1009.8 |
| 20260507051812 | 10 | 217 | 0.0 | 4.8 | 0.00 | 0.51 | 0.43 | 94 | 1009.8 |
| 20260507050312 | 10 | 217 | 0.0 | 0.0 | 0.00 | 0.51 | 0.43 | 94 | 1009.7 |
| 20260507044812 | 9 | 217 | 1.6 | 6.4 | 0.03 | 0.51 | 0.43 | 94 | 1009.6 |
| 20260507043311 | 9 | 217 | 0.0 | 4.8 | 0.03 | 0.51 | 0.43 | 94 | 1009.5 |
| 20260507041812 | 9 | 219 | 1.6 | 3.2 | 0.03 | 0.51 | 0.43 | 94 | 1009.4 |
| 20260507040313 | 9 | 224 | 0.0 | 4.8 | 0.10 | 0.51 | 0.43 | 94 | 1009.3 |
| 20260507034812 | 9 | 224 | 0.0 | 0.0 | 0.15 | 0.48 | 0.41 | 94 | 1009.1 |
| 20260507033311 | 9 | 224 | 0.0 | 0.0 | 0.20 | 0.48 | 0.41 | 94 | 1009.2 |
| 20260507031811 | 9 | 224 | 0.0 | 0.0 | 0.23 | 0.48 | 0.41 | 94 | 1009.1 |
| 20260507030312 | 10 | 223 | 3.2 | 9.7 | 0.15 | 0.41 | 0.33 | 94 | 1009.1 |
| 20260507024811 | 10 | 213 | 0.0 | 0.0 | 0.08 | 0.33 | 0.25 | 94 | 1009.0 |
| 20260507023311 | 10 | 213 | 0.0 | 0.0 | 0.03 | 0.28 | 0.20 | 94 | 1009.0 |
| 20260507021812 | 10 | 213 | 0.0 | 0.0 | 0.03 | 0.25 | 0.18 | 94 | 1009.2 |
| 20260507020312 | 10 | 213 | 0.0 | 0.0 | 0.05 | 0.25 | 0.18 | 94 | 1009.1 |
| 20260507014811 | 10 | 213 | 0.0 | 0.0 | 0.05 | 0.25 | 0.18 | 94 | 1008.9 |
| 20260507013312 | 10 | 213 | 0.0 | 0.0 | 0.08 | 0.25 | 0.18 | 94 | 1008.9 |
| 20260507011811 | 10 | 213 | 0.0 | 0.0 | 0.08 | 0.23 | 0.15 | 93 | 1008.9 |
| 20260507010311 | 10 | 213 | 0.0 | 0.0 | 0.05 | 0.23 | 0.15 | 93 | 1008.8 |
| 20260507004811 | 10 | 213 | 0.0 | 0.0 | 0.05 | 0.23 | 0.15 | 93 | 1008.7 |
| 20260507003311 | 10 | 213 | 0.0 | 6.4 | 0.03 | 0.18 | 0.10 | 93 | 1008.7 |
| 20260507001812 | 10 | 213 | 1.6 | 6.4 | 0.00 | 0.15 | 0.08 | 92 | 1008.6 |
| 20260507000313 | 10 | 213 | 3.2 | 6.4 | 0.00 | 0.15 | 0.08 | 93 | 1008.7 |
| 20260506234811 | 10 | 202 | 1.6 | 4.8 | 0.00 | 0.15 | 0.08 | 93 | 1008.7 |
| 20260506233311 | 11 | 202 | 0.0 | 0.0 | 0.05 | 0.15 | 0.08 | 93 | 1008.8 |
| 20260506231812 | 11 | 202 | 1.6 | 4.8 | 0.05 | 0.15 | 0.08 | 93 | 1008.4 |
| 20260506230311 | 11 | 180 | 0.0 | 4.8 | 0.08 | 0.15 | 0.08 | 93 | 1008.4 |
| 20260506224811 | 11 | 180 | 3.2 | 6.4 | 0.13 | 0.18 | 0.08 | 93 | 1008.4 |
| 20260506223311 | 11 | 187 | 0.0 | 1.6 | 0.10 | 0.15 | 0.05 | 92 | 1008.4 |
| 20260506221812 | 11 | 187 | 0.0 | 0.0 | 0.08 | 0.13 | 0.03 | 92 | 1008.2 |
| 20260506220311 | 11 | 187 | 0.0 | 0.0 | 0.08 | 0.10 | 0.00 | 92 | 1008.4 |
| 20260506214811 | 11 | 187 | 0.0 | 0.0 | 0.05 | 0.05 | 0.05 | 91 | 1008.3 |
| 20260506213311 | 11 | 187 | 0.0 | 3.2 | 0.03 | 0.05 | 0.05 | 91 | 1008.3 |
| 20260506211811 | 11 | 187 | 0.0 | 0.0 | 0.03 | 0.05 | 0.05 | 90 | 1008.1 |
| 20260506210311 | 11 | 187 | 1.6 | 4.8 | 0.00 | 0.03 | 0.03 | 89 | 1007.9 |
| 20260506204811 | 12 | 187 | 1.6 | 3.2 | 0.00 | 0.28 | 0.03 | 89 | 1007.8 |
| 20260506203311 | 12 | 187 | 0.0 | 0.0 | 0.00 | 0.28 | 0.03 | 89 | 1007.9 |
| 20260506202527 | 12 | 187 | 0.0 | 0.0 | 0.00 | 0.28 | 0.03 | 89 | 1007.8 |
| 20260506202027 | 12 | 187 | 0.0 | 0.0 | 0.00 | 0.28 | 0.03 | 89 | 1007.8 |
| 20260506201811 | 12 | 187 | 3.2 | 6.4 | 0.00 | 0.28 | 0.03 | 89 | 1007.9 |
| 20260506201527 | 12 | 187 | 1.6 | 6.4 | 0.00 | 0.28 | 0.03 | 89 | 1007.9 |
| 20260506201027 | 12 | 187 | 4.8 | 6.4 | 0.00 | 0.28 | 0.03 | 89 | 1007.6 |
| 20260506200527 | 12 | 187 | 3.2 | 4.8 | 0.00 | 0.28 | 0.03 | 89 | 1007.6 |
| 20260506200311 | 12 | 187 | 4.8 | 9.7 | 0.00 | 0.28 | 0.03 | 88 | 1007.4 |
| 20260506200028 | 12 | 187 | 4.8 | 9.7 | 0.00 | 0.28 | 0.03 | 88 | 1007.4 |
| 20260506195528 | 12 | 203 | 6.4 | 8.0 | 0.00 | 0.89 | 0.03 | 88 | 1007.4 |
| 20260506195028 | 12 | 209 | 6.4 | 9.7 | 0.00 | 0.89 | 0.03 | 88 | 1007.4 |
| 20260506194811 | 12 | 170 | 0.0 | 0.0 | 0.00 | 0.89 | 0.03 | 89 | 1007.3 |
| 20260506194528 | 12 | 170 | 0.0 | 0.0 | 0.00 | 0.89 | 0.03 | 89 | 1007.3 |
| 20260506194028 | 12 | 170 | 0.0 | 0.0 | 0.00 | 0.89 | 0.03 | 89 | 1007.2 |
| 20260506193528 | 12 | 170 | 0.0 | 0.0 | 0.00 | 0.89 | 0.03 | 88 | 1007.2 |
| 20260506193311 | 12 | 170 | 0.0 | 0.0 | 0.00 | 0.89 | 0.03 | 88 | 1007.1 |
| 20260506193028 | 12 | 170 | 0.0 | 0.0 | 0.00 | 0.89 | 0.03 | 88 | 1007.1 |
| 20260506192528 | 12 | 170 | 0.0 | 0.0 | 0.00 | 0.89 | 0.03 | 87 | 1007.1 |
| 20260506192028 | 12 | 170 | 0.0 | 0.0 | 0.00 | 0.89 | 0.03 | 87 | 1007.1 |
| 20260506191812 | 12 | 170 | 0.0 | 0.0 | 0.00 | 0.89 | 0.03 | 87 | 1007.0 |
| 20260506191527 | 12 | 170 | 0.0 | 0.0 | 0.00 | 0.89 | 0.03 | 87 | 1007.0 |
| 20260506191027 | 12 | 170 | 0.0 | 0.0 | 0.00 | 0.89 | 0.03 | 86 | 1007.1 |
| 20260506190527 | 12 | 170 | 0.0 | 6.4 | 0.00 | 0.89 | 0.03 | 86 | 1006.9 |
| 20260506190311 | 13 | 170 | 0.0 | 3.2 | 0.00 | 0.89 | 0.03 | 85 | 1007.2 |
| 20260506190027 | 13 | 170 | 0.0 | 3.2 | 0.00 | 0.89 | 0.03 | 85 | 1007.2 |
| 20260506185527 | 13 | 170 | 1.6 | 8.0 | 0.00 | 1.55 | 0.03 | 84 | 1007.2 |
| 20260506185028 | 13 | 170 | 4.8 | 9.7 | 0.00 | 1.55 | 0.03 | 84 | 1007.0 |
| 20260506184813 | 13 | 170 | 4.8 | 9.7 | 0.00 | 1.55 | 0.03 | 83 | 1006.7 |
| 20260506184528 | 13 | 170 | 4.8 | 9.7 | 0.00 | 1.55 | 0.03 | 83 | 1006.7 |
| 20260506184028 | 13 | 170 | 3.2 | 8.0 | 0.00 | 1.55 | 0.03 | 82 | 1006.6 |
| 20260506183528 | 13 | 170 | 1.6 | 6.4 | 0.00 | 1.55 | 0.03 | 82 | 1006.6 |
| 20260506183311 | 13 | 170 | 3.2 | 6.4 | 0.00 | 1.55 | 0.03 | 82 | 1006.6 |
| 20260506183028 | 13 | 170 | 1.6 | 6.4 | 0.00 | 1.55 | 0.03 | 82 | 1006.6 |
| 20260506182528 | 13 | 170 | 1.6 | 6.4 | 0.00 | 1.55 | 0.03 | 82 | 1006.6 |
| 20260506182028 | 13 | 170 | 4.8 | 8.0 | 0.00 | 1.55 | 0.03 | 82 | 1006.7 |
| 20260506181811 | 13 | 170 | 1.6 | 6.4 | 0.00 | 1.55 | 0.03 | 83 | 1006.6 |
| 20260506181527 | 13 | 170 | 1.6 | 6.4 | 0.00 | 1.55 | 0.03 | 83 | 1006.6 |
| 20260506181027 | 13 | 170 | 3.2 | 6.4 | 0.00 | 1.55 | 0.03 | 84 | 1006.5 |
| 20260506180527 | 13 | 170 | 0.0 | 0.0 | 0.00 | 1.55 | 0.03 | 84 | 1006.7 |
| 20260506180311 | 13 | 170 | 0.0 | 0.0 | 0.00 | 1.55 | 0.03 | 83 | 1006.6 |
| 20260506180027 | 13 | 170 | 0.0 | 0.0 | 0.00 | 1.55 | 0.03 | 83 | 1006.6 |
| 20260506175527 | 14 | 170 | 0.0 | 0.0 | 0.00 | 1.55 | 0.03 | 82 | 1006.7 |
| 20260506174811 | 14 | 170 | 0.0 | 0.0 | 0.00 | 1.55 | 0.03 | 80 | 1006.5 |
| 20260506173311 | 15 | 170 | 0.0 | 0.0 | 0.00 | 1.55 | 0.03 | 75 | 1006.5 |
| 20260506171811 | 15 | 170 | 1.6 | 3.2 | 0.00 | 1.55 | 0.03 | 70 | 1006.4 |
| 20260506170311 | 16 | 170 | 3.2 | 6.4 | 0.00 | 1.55 | 0.03 | 66 | 1006.4 |
| 20260506164811 | 16 | 170 | 1.6 | 3.2 | 0.00 | 1.55 | 0.03 | 64 | 1006.5 |
| 20260506163311 | 16 | 170 | 0.0 | 3.2 | 0.00 | 1.55 | 0.03 | 64 | 1006.5 |
| 20260506161811 | 16 | 205 | 0.0 | 3.2 | 0.00 | 1.55 | 0.03 | 66 | 1006.6 |
| 20260506160311 | 16 | 205 | 3.2 | 6.4 | 0.00 | 1.55 | 0.03 | 67 | 1006.6 |
| 20260506154811 | 16 | 205 | 4.8 | 8.0 | 0.00 | 1.68 | 0.03 | 69 | 1006.9 |
| 20260506153311 | 16 | 218 | 3.2 | 6.4 | 0.00 | 1.68 | 0.03 | 69 | 1007.1 |
| 20260506152526 | 16 | 220 | 4.8 | 8.0 | 0.00 | 1.68 | 0.03 | 68 | 1007.1 |
| 20260506152028 | 16 | 214 | 0.0 | 4.8 | 0.00 | 1.68 | 0.03 | 68 | 1007.1 |
| 20260506151811 | 16 | 269 | 1.6 | 4.8 | 0.00 | 1.68 | 0.03 | 69 | 1007.2 |
| 20260506151528 | 16 | 269 | 0.0 | 4.8 | 0.00 | 1.68 | 0.03 | 69 | 1007.2 |
| 20260506151028 | 16 | 270 | 4.8 | 9.7 | 0.00 | 1.68 | 0.03 | 69 | 1007.1 |
| 20260506150528 | 16 | 247 | 1.6 | 6.4 | 0.00 | 1.68 | 0.03 | 69 | 1007.1 |
| 20260506150311 | 16 | 265 | 4.8 | 11.3 | 0.00 | 1.68 | 0.03 | 70 | 1007.1 |
| 20260506150028 | 16 | 265 | 4.8 | 11.3 | 0.00 | 1.68 | 0.03 | 70 | 1007.1 |
| 20260506145530 | 16 | 254 | 4.8 | 11.3 | 0.00 | 1.68 | 0.03 | 70 | 1007.0 |
| 20260506145027 | 16 | 277 | 3.2 | 12.9 | 0.00 | 1.68 | 0.03 | 70 | 1006.9 |
| 20260506144811 | 16 | 265 | 4.8 | 9.7 | 0.00 | 1.68 | 0.03 | 69 | 1006.9 |
| 20260506144528 | 16 | 265 | 4.8 | 9.7 | 0.00 | 1.68 | 0.03 | 69 | 1006.9 |
| 20260506144027 | 16 | 254 | 3.2 | 8.0 | 0.00 | 1.68 | 0.03 | 69 | 1007.0 |
| 20260506143527 | 16 | 212 | 3.2 | 9.7 | 0.00 | 1.68 | 0.03 | 70 | 1007.0 |
| 20260506143311 | 16 | 204 | 4.8 | 9.7 | 0.00 | 1.68 | 0.03 | 69 | 1007.0 |
| 20260506143028 | 16 | 204 | 3.2 | 9.7 | 0.00 | 1.68 | 0.03 | 69 | 1007.0 |
| 20260506142527 | 16 | 229 | 4.8 | 8.0 | 0.00 | 1.68 | 0.03 | 70 | 1007.1 |
| 20260506142026 | 16 | 243 | 6.4 | 12.9 | 0.00 | 1.68 | 0.03 | 68 | 1007.0 |
| 20260506141811 | 16 | 213 | 8.0 | 14.5 | 0.00 | 1.68 | 0.03 | 69 | 1007.1 |
| 20260506141528 | 16 | 213 | 9.7 | 14.5 | 0.00 | 1.68 | 0.03 | 69 | 1007.1 |
| 20260506141028 | 16 | 231 | 8.0 | 12.9 | 0.00 | 1.68 | 0.03 | 68 | 1007.2 |
| 20260506140528 | 16 | 237 | 6.4 | 16.1 | 0.00 | 1.68 | 0.03 | 68 | 1007.3 |
| 20260506140311 | 16 | 195 | 6.4 | 14.5 | 0.00 | 1.68 | 0.03 | 68 | 1007.2 |
| 20260506140029 | 16 | 195 | 4.8 | 14.5 | 0.00 | 1.68 | 0.03 | 68 | 1007.2 |
| 20260506135528 | 16 | 205 | 8.0 | 11.3 | 0.00 | 1.70 | 0.03 | 67 | 1007.2 |
| 20260506135028 | 16 | 224 | 8.0 | 14.5 | 0.00 | 1.70 | 0.03 | 69 | 1007.2 |
| 20260506134811 | 16 | 271 | 6.4 | 16.1 | 0.00 | 1.70 | 0.03 | 69 | 1007.2 |
| 20260506134528 | 16 | 271 | 9.7 | 16.1 | 0.00 | 1.70 | 0.03 | 69 | 1007.2 |
| 20260506134027 | 16 | 231 | 8.0 | 14.5 | 0.00 | 1.70 | 0.03 | 68 | 1007.3 |
| 20260506133528 | 16 | 216 | 4.8 | 12.9 | 0.00 | 1.70 | 0.03 | 69 | 1007.2 |
| 20260506133312 | 16 | 202 | 6.4 | 12.9 | 0.00 | 1.70 | 0.03 | 67 | 1007.3 |
| 20260506133027 | 16 | 202 | 6.4 | 12.9 | 0.00 | 1.70 | 0.03 | 67 | 1007.3 |
| 20260506132527 | 16 | 148 | 8.0 | 12.9 | 0.00 | 1.70 | 0.03 | 67 | 1007.3 |
| 20260506132027 | 16 | 181 | 4.8 | 16.1 | 0.00 | 1.70 | 0.03 | 68 | 1007.3 |
| 20260506131811 | 16 | 209 | 8.0 | 12.9 | 0.00 | 1.70 | 0.03 | 69 | 1007.4 |
| 20260506131528 | 16 | 209 | 8.0 | 12.9 | 0.00 | 1.70 | 0.03 | 69 | 1007.4 |
| 20260506131027 | 16 | 214 | 8.0 | 16.1 | 0.00 | 1.70 | 0.03 | 70 | 1007.5 |
| 20260506130526 | 16 | 218 | 3.2 | 14.5 | 0.00 | 1.70 | 0.03 | 69 | 1007.4 |
| 20260506130312 | 16 | 218 | 9.7 | 19.3 | 0.00 | 1.70 | 0.03 | 70 | 1007.4 |
| 20260506130026 | 16 | 218 | 12.9 | 19.3 | 0.00 | 1.70 | 0.03 | 70 | 1007.4 |
| 20260506125528 | 15 | 218 | 9.7 | 17.7 | 0.00 | 1.73 | 0.03 | 69 | 1007.3 |
| 20260506125028 | 15 | 232 | 8.0 | 16.1 | 0.00 | 1.73 | 0.03 | 70 | 1007.3 |
| 20260506124811 | 15 | 257 | 9.7 | 17.7 | 0.00 | 1.73 | 0.03 | 69 | 1007.4 |
| 20260506124528 | 15 | 257 | 6.4 | 17.7 | 0.00 | 1.73 | 0.03 | 69 | 1007.4 |
| 20260506124028 | 15 | 178 | 9.7 | 12.9 | 0.00 | 1.73 | 0.03 | 70 | 1007.4 |
| 20260506123528 | 16 | 235 | 9.7 | 16.1 | 0.00 | 1.73 | 0.03 | 70 | 1007.5 |
| 20260506123311 | 16 | 208 | 6.4 | 16.1 | 0.00 | 1.73 | 0.03 | 70 | 1007.4 |
| 20260506123029 | 16 | 208 | 9.7 | 16.1 | 0.00 | 1.73 | 0.03 | 70 | 1007.4 |
| 20260506122027 | 15 | 225 | 6.4 | 16.1 | 0.00 | 1.73 | 0.03 | 72 | 1007.5 |
| 20260506121814 | 15 | 232 | 8.0 | 14.5 | 0.00 | 1.73 | 0.03 | 72 | 1007.6 |
| 20260506121527 | 15 | 232 | 8.0 | 14.5 | 0.00 | 1.73 | 0.03 | 72 | 1007.6 |